Vertical_Velocity
-4 -4 -2 -2 -4 -8 -5 -6 -6 -6 -8 -8 -7 -4 -5 -1 -1 -2 -3 -1 -1 -4
-3 -2 -3 -5 -4 -7 -1 -3 -5 -7 -7 -7 -5 -8 -3 -2 -1 -2 -2 -1 -1 -6
-3 -3 -3 -4 -2 -5 0 -4 -5 -4 -6 -7 -7 -7 -5 -5 -1 -3 -0 -2 -2 -1
-3 -3 -4 -1 -3 1 -1 -5 -4 -4 -4 -6 -2 -6 -7 -3 -1 -2 -2 -0 -5 -1
-5 -1 1 -0 1 0 -3 -5 -3 -3 -3 -8 -7 -1 -4 -4 -4 -5 -1 0 -3 -2
1 0 -0 -0 -1 -3 -2 -2 -2 -6 -6 -1 -2 -0 -2 -9 -8 -3 -3 -2 -2 -0
-1 -0 1 0 -1 -3 -2 -2 -1 -2 -3 -5 -3 -5 -7 -8 -6 -3 -3 -2 0 0
0 0 1 0 -2 -2 -1 -2 -2 -5 -3 -5 -6 -6 -9 -6 -4 -3 -3 1 3 1
-1 2 -1 -1 -0 -1 0 -1 -5 -3 -10 -3 -0 -5 -4 -10 -8 -2 -5 -4 2 -0
-0 2 0 -1 -1 -2 -1 -3 -1 -1 -7 -5 -2 -4 -2 -2 -6 -4 -3 -4 -3 -2
-0 1 2 -1 -1 0 -2 -3 -1 -1 -3 -12 6 -3 -3 -4 -4 -3 -1 -3 -1 -6
1 0 0 -1 0 3 -5 -1 -2 -5 -6 -9 3 0 -3 -6 -4 -2 -1 1 1 -6
1 -1 -1 -1 2 -0 1 -5 -5 -3 -3 -2 -8 4 -2 -2 -7 -7 -6 6 1 2
2 -2 -1 -2 -0 -3 -4 -6 -3 -7 -1 -1 -1 2 0 1 -6 -7 -8 -5 -2 2
Height
3058 3054 3051 3048 3044 3042 3039 3035 3032 3029 3025 3021 3018 3014 3011 3009 3007 3006 3006 3006 3006 3004
3049 3046 3043 3040 3037 3034 3030 3027 3024 3021 3018 3014 3010 3006 3002 2999 2997 2996 2995 2994 2994 2993
3042 3040 3037 3034 3031 3028 3024 3020 3017 3014 3010 3006 3002 2998 2994 2990 2987 2986 2984 2983 2982 2982
3036 3034 3030 3027 3024 3022 3017 3014 3011 3007 3003 2999 2995 2990 2985 2981 2978 2975 2974 2972 2970 2971
3028 3025 3023 3020 3017 3014 3011 3008 3004 3000 2996 2991 2987 2982 2976 2972 2968 2965 2963 2962 2959 2960
3019 3017 3015 3012 3009 3005 3003 3000 2996 2992 2987 2983 2979 2974 2968 2963 2960 2956 2953 2951 2948 2947
3010 3008 3005 3003 3000 2997 2994 2991 2987 2983 2979 2975 2971 2965 2961 2956 2952 2947 2943 2941 2938 2936
3000 2998 2996 2993 2991 2988 2985 2981 2977 2974 2971 2966 2961 2956 2951 2947 2942 2937 2933 2931 2928 2925
2990 2988 2986 2983 2980 2977 2974 2971 2968 2964 2960 2957 2952 2947 2942 2937 2931 2927 2922 2918 2916 2914
2979 2977 2975 2972 2969 2966 2963 2960 2956 2953 2949 2946 2942 2937 2932 2927 2922 2916 2912 2908 2904 2902
2967 2965 2962 2959 2956 2953 2950 2947 2943 2941 2937 2933 2930 2925 2920 2916 2911 2906 2902 2898 2893 2890
2954 2952 2949 2946 2943 2940 2936 2933 2929 2927 2924 2919 2916 2912 2908 2903 2899 2895 2891 2887 2883 2879
2941 2938 2935 2932 2929 2925 2921 2918 2914 2912 2909 2905 2901 2899 2895 2891 2886 2882 2878 2875 2871 2869
2928 2924 2920 2917 2913 2910 2906 2902 2899 2896 2894 2891 2888 2885 2882 2879 2875 2870 2865 2860 2857 2856